| time (UTC) | temp F | wind direction | speed MPH | gust MPH | rain 1hr in | rain 24hr in | rain mn in | humidity % | barometer mb |
| 20260901092350 | 70 | 197 | 0.0 | 0.0 | 0.00 | 0.00 | 0.00 | 100 | 1016.3 |
| 20260901091348 | 70 | 197 | 0.0 | 0.0 | 0.00 | 0.00 | 0.00 | 100 | 1016.3 |
| 20260901090350 | 70 | 197 | 0.0 | 0.0 | 0.00 | 0.01 | 0.00 | 100 | 1016.4 |
| 20260901085349 | 70 | 197 | 0.0 | 0.0 | 0.00 | 0.01 | 0.00 | 99 | 1016.6 |
| 20260901084349 | 70 | 197 | 0.0 | 0.0 | 0.00 | 0.01 | 0.00 | 99 | 1016.6 |
| 20260901083344 | 70 | 197 | 0.0 | 0.0 | 0.00 | 0.01 | 0.00 | 99 | 1016.6 |
| 20260901082343 | 70 | 197 | 0.0 | 0.0 | 0.00 | 0.01 | 0.00 | 99 | 1016.5 |
| 20260901081343 | 70 | 197 | 0.0 | 0.0 | 0.00 | 0.01 | 0.00 | 99 | 1016.6 |
| 20260901080342 | 70 | 197 | 0.0 | 0.0 | 0.00 | 0.01 | 0.00 | 99 | 1016.6 |
| 20260901075343 | 70 | 197 | 0.0 | 0.0 | 0.00 | 0.01 | 0.00 | 99 | 1016.5 |
| 20260901074342 | 70 | 197 | 0.0 | 0.0 | 0.00 | 0.01 | 0.00 | 99 | 1016.6 |
| 20260901073343 | 70 | 197 | 0.0 | 0.0 | 0.00 | 0.01 | 0.00 | 99 | 1016.6 |
| 20260901070342 | 70 | 196 | 0.0 | 0.0 | 0.00 | 0.01 | 0.00 | 99 | 1016.8 |
| 20260901065341 | 70 | 197 | 0.0 | 0.0 | 0.00 | 0.01 | 0.00 | 99 | 1016.8 |
| 20260901064340 | 70 | 197 | 0.0 | 0.0 | 0.00 | 0.01 | 0.00 | 99 | 1017.1 |
| 20260901063341 | 70 | 197 | 0.0 | 0.0 | 0.00 | 0.01 | 0.00 | 99 | 1017.0 |
| 20260901062340 | 70 | 197 | 0.0 | 0.0 | 0.00 | 0.01 | 0.00 | 99 | 1017.0 |
| 20260901060340 | 70 | 197 | 0.0 | 0.0 | 0.00 | 0.01 | 0.00 | 98 | 1017.3 |
| 20260901055338 | 70 | 197 | 0.0 | 0.0 | 0.00 | 0.01 | 0.00 | 98 | 1017.3 |
| 20260901054336 | 70 | 197 | 0.0 | 0.0 | 0.00 | 0.01 | 0.00 | 98 | 1017.6 |
| 20260901053336 | 70 | 197 | 0.0 | 0.0 | 0.00 | 0.01 | 0.00 | 98 | 1017.5 |
| 20260901052336 | 70 | 196 | 0.0 | 0.0 | 0.00 | 0.01 | 0.00 | 98 | 1017.6 |
| 20260901051337 | 70 | 197 | 0.0 | 0.0 | 0.00 | 0.01 | 0.00 | 98 | 1017.8 |
| 20260901050337 | 70 | 197 | 0.0 | 0.0 | 0.00 | 0.01 | 0.00 | 98 | 1017.8 |
| 20260901044335 | 70 | 197 | 0.0 | 0.0 | 0.00 | 0.01 | 0.00 | 97 | 1017.8 |
| 20260901042330 | 70 | 249 | 0.0 | 2.0 | 0.00 | 0.01 | 0.00 | 97 | 1017.7 |
| 20260901041330 | 70 | 239 | 0.0 | 1.0 | 0.00 | 0.01 | 0.00 | 97 | 1017.8 |
| 20260901035332 | 70 | 255 | 0.0 | 1.0 | 0.00 | 0.01 | 0.01 | 97 | 1018.0 |
| 20260901034331 | 70 | 277 | 0.0 | 2.0 | 0.00 | 0.01 | 0.01 | 97 | 1018.0 |
| 20260901033325 | 70 | 191 | 0.0 | 0.0 | 0.00 | 0.01 | 0.01 | 97 | 1018.2 |
| 20260901032325 | 71 | 183 | 0.0 | 0.0 | 0.00 | 0.01 | 0.01 | 97 | 1018.2 |
| 20260901031331 | 70 | 223 | 0.0 | 0.0 | 0.00 | 0.01 | 0.01 | 97 | 1018.3 |
| 20260901030325 | 70 | 223 | 0.0 | 0.0 | 0.00 | 0.01 | 0.01 | 97 | 1018.4 |
| 20260901024326 | 70 | 223 | 0.0 | 0.0 | 0.00 | 0.01 | 0.01 | 97 | 1018.5 |
| 20260901023325 | 71 | 224 | 0.0 | 0.0 | 0.00 | 0.03 | 0.01 | 97 | 1018.7 |
| 20260901022325 | 71 | 224 | 0.0 | 0.0 | 0.00 | 0.03 | 0.01 | 97 | 1018.7 |
| 20260901021327 | 71 | 224 | 0.0 | 0.0 | 0.00 | 0.03 | 0.01 | 97 | 1018.9 |
| 20260901020320 | 71 | 224 | 0.0 | 0.0 | 0.00 | 0.04 | 0.01 | 97 | 1018.8 |
| 20260901015318 | 71 | 224 | 0.0 | 0.0 | 0.00 | 0.04 | 0.01 | 96 | 1018.6 |
| 20260901014320 | 71 | 224 | 0.0 | 0.0 | 0.00 | 0.04 | 0.01 | 96 | 1018.5 |
| 20260901013319 | 71 | 224 | 0.0 | 0.0 | 0.00 | 0.04 | 0.01 | 96 | 1018.7 |
| 20260901011321 | 71 | 224 | 0.0 | 0.0 | 0.00 | 0.04 | 0.01 | 96 | 1018.8 |
| 20260901010320 | 71 | 223 | 0.0 | 1.0 | 0.00 | 0.04 | 0.01 | 96 | 1018.5 |
| 20260901005319 | 72 | 224 | 0.0 | 0.0 | 0.00 | 0.04 | 0.01 | 96 | 1018.5 |
| 20260901004320 | 72 | 156 | 0.0 | 0.0 | 0.00 | 0.04 | 0.01 | 96 | 1018.6 |
| 20260901003318 | 72 | 156 | 0.0 | 0.0 | 0.00 | 0.04 | 0.01 | 95 | 1018.4 |
| 20260901002316 | 72 | 156 | 0.0 | 0.0 | 0.00 | 0.04 | 0.01 | 94 | 1018.3 |
| 20260901001316 | 72 | 156 | 0.0 | 0.0 | 0.00 | 0.04 | 0.01 | 94 | 1018.3 |
| 20260901000314 | 73 | 156 | 0.0 | 0.0 | 0.00 | 0.04 | 0.01 | 94 | 1018.3 |
| 20260831235311 | 73 | 156 | 0.0 | 0.0 | 0.00 | 0.04 | 0.01 | 93 | 1018.2 |
| 20260831234311 | 73 | 156 | 0.0 | 0.0 | 0.00 | 0.04 | 0.01 | 92 | 1018.4 |
| 20260831233311 | 74 | 156 | 0.0 | 0.0 | 0.00 | 0.04 | 0.01 | 92 | 1018.3 |
| 20260831232310 | 74 | 156 | 0.0 | 0.0 | 0.00 | 0.04 | 0.01 | 90 | 1018.4 |
| 20260831231311 | 75 | 156 | 0.0 | 0.0 | 0.00 | 0.04 | 0.01 | 90 | 1018.4 |
| 20260831224308 | 76 | 156 | 0.0 | 0.0 | 0.00 | 0.04 | 0.01 | 89 | 1018.4 |
| 20260831223308 | 76 | 156 | 0.0 | 0.0 | 0.00 | 0.04 | 0.01 | 89 | 1018.4 |
| 20260831222306 | 76 | 156 | 0.0 | 0.0 | 0.00 | 0.04 | 0.01 | 87 | 1018.5 |
| 20260831220301 | 77 | 156 | 0.0 | 0.0 | 0.00 | 0.04 | 0.01 | 87 | 1018.7 |
| 20260831215300 | 77 | 156 | 0.0 | 0.0 | 0.00 | 0.04 | 0.01 | 86 | 1018.9 |
| 20260831214300 | 76 | 156 | 0.0 | 0.0 | 0.00 | 0.04 | 0.01 | 86 | 1018.9 |
| 20260831213303 | 77 | 156 | 0.0 | 0.0 | 0.00 | 0.04 | 0.01 | 86 | 1018.9 |
| 20260831212306 | 77 | 156 | 0.0 | 0.0 | 0.00 | 0.04 | 0.01 | 86 | 1018.9 |
| 20260831211300 | 77 | 156 | 0.0 | 2.0 | 0.00 | 0.04 | 0.01 | 84 | 1019.0 |
| 20260831210300 | 77 | 143 | 0.0 | 1.0 | 0.00 | 0.08 | 0.01 | 85 | 1019.0 |
| 20260831205305 | 77 | 267 | 0.0 | 2.0 | 0.00 | 0.08 | 0.01 | 86 | 1019.0 |
| 20260831204301 | 76 | 217 | 0.0 | 1.0 | 0.00 | 0.08 | 0.01 | 86 | 1019.0 |
| 20260831202255 | 76 | 217 | 0.0 | 0.0 | 0.00 | 0.08 | 0.01 | 89 | 1019.1 |
| 20260831201253 | 76 | 217 | 0.0 | 0.0 | 0.00 | 0.08 | 0.01 | 87 | 1019.4 |
| 20260831195249 | 76 | 217 | 0.0 | 0.0 | 0.00 | 0.08 | 0.01 | 85 | 1019.5 |
| 20260831194248 | 76 | 216 | 0.0 | 0.0 | 0.00 | 0.08 | 0.01 | 84 | 1019.7 |
| 20260831193248 | 76 | 217 | 0.0 | 0.0 | 0.00 | 0.08 | 0.01 | 86 | 1019.6 |
| 20260831191241 | 76 | 217 | 0.0 | 0.0 | 0.00 | 0.08 | 0.01 | 83 | 1020.1 |
| 20260831190241 | 76 | 217 | 0.0 | 1.0 | 0.00 | 0.08 | 0.01 | 83 | 1020.1 |
| 20260831185241 | 77 | 217 | 0.0 | 0.0 | 0.00 | 0.08 | 0.01 | 82 | 1020.1 |
| 20260831184237 | 77 | 217 | 0.0 | 0.0 | 0.00 | 0.08 | 0.01 | 84 | 1020.2 |
| 20260831183237 | 76 | 217 | 0.0 | 0.0 | 0.00 | 0.08 | 0.01 | 83 | 1020.1 |
| 20260831182237 | 77 | 217 | 0.0 | 0.0 | 0.00 | 0.08 | 0.01 | 82 | 1020.3 |
| 20260831181238 | 77 | 217 | 0.0 | 1.0 | 0.00 | 0.08 | 0.01 | 81 | 1020.2 |
| 20260831180239 | 77 | 259 | 0.0 | 0.0 | 0.00 | 0.08 | 0.01 | 83 | 1020.3 |
| 20260831175233 | 78 | 259 | 0.0 | 1.0 | 0.00 | 0.08 | 0.01 | 80 | 1020.4 |
| 20260831174231 | 78 | 253 | 0.0 | 0.0 | 0.00 | 0.08 | 0.01 | 82 | 1020.5 |
| 20260831173232 | 78 | 252 | 0.0 | 1.0 | 0.00 | 0.08 | 0.01 | 80 | 1020.4 |
| 20260831172231 | 78 | 249 | 0.0 | 1.0 | 0.00 | 0.08 | 0.01 | 79 | 1020.4 |
| 20260831171232 | 78 | 260 | 0.0 | 1.0 | 0.00 | 0.08 | 0.01 | 81 | 1020.3 |
| 20260831170232 | 78 | 241 | 0.0 | 1.0 | 0.00 | 0.08 | 0.01 | 82 | 1020.2 |
| 20260831165232 | 77 | 75 | 0.0 | 1.0 | 0.00 | 0.08 | 0.01 | 85 | 1020.3 |
| 20260831164232 | 77 | 79 | 0.0 | 1.0 | 0.00 | 0.08 | 0.01 | 85 | 1020.4 |
| 20260831163233 | 76 | 291 | 0.0 | 1.0 | 0.00 | 0.08 | 0.01 | 87 | 1020.3 |
| 20260831161226 | 75 | 89 | 0.0 | 0.0 | 0.00 | 0.08 | 0.01 | 91 | 1020.4 |
| 20260831160225 | 74 | 112 | 0.0 | 1.0 | 0.00 | 0.08 | 0.01 | 93 | 1020.4 |
| 20260831155225 | 74 | 114 | 0.0 | 1.0 | 0.00 | 0.08 | 0.01 | 98 | 1020.5 |
| 20260831153226 | 72 | 114 | 0.0 | 2.0 | 0.00 | 0.08 | 0.01 | 100 | 1020.5 |
| 20260831152228 | 72 | 90 | 0.0 | 1.0 | 0.00 | 0.08 | 0.01 | 100 | 1020.5 |
| 20260831150224 | 71 | 72 | 0.0 | 1.0 | 0.00 | 0.08 | 0.01 | 100 | 1020.7 |
| 20260831144224 | 71 | 72 | 0.0 | 1.0 | 0.00 | 0.08 | 0.01 | 100 | 1020.6 |
| 20260831143223 | 71 | 71 | 0.0 | 1.0 | 0.00 | 0.08 | 0.01 | 100 | 1020.7 |
| 20260831142221 | 70 | 71 | 0.0 | 0.0 | 0.00 | 0.08 | 0.01 | 100 | 1020.6 |
| 20260831141221 | 70 | 288 | 0.0 | 0.0 | 0.00 | 0.08 | 0.01 | 100 | 1020.5 |
| 20260831140222 | 69 | 278 | 0.0 | 0.0 | 0.00 | 0.08 | 0.01 | 100 | 1020.5 |
| 20260831135222 | 69 | 278 | 0.0 | 0.0 | 0.00 | 0.08 | 0.01 | 100 | 1020.6 |
| 20260831134219 | 70 | 278 | 0.0 | 0.0 | 0.00 | 0.08 | 0.01 | 100 | 1020.4 |
| 20260831133220 | 70 | 278 | 0.0 | 0.0 | 0.00 | 0.08 | 0.01 | 100 | 1020.5 |
| 20260831132220 | 69 | 278 | 0.0 | 0.0 | 0.00 | 0.08 | 0.01 | 100 | 1020.5 |
| 20260831131219 | 69 | 278 | 0.0 | 0.0 | 0.00 | 0.08 | 0.01 | 100 | 1020.5 |
| 20260831130218 | 69 | 278 | 0.0 | 0.0 | 0.00 | 0.08 | 0.01 | 100 | 1020.5 |
| 20260831125218 | 69 | 278 | 0.0 | 0.0 | 0.00 | 0.08 | 0.01 | 100 | 1020.4 |
| 20260831124219 | 69 | 278 | 0.0 | 0.0 | 0.00 | 0.08 | 0.01 | 100 | 1020.3 |
| 20260831122218 | 67 | 278 | 0.0 | 0.0 | 0.00 | 0.08 | 0.01 | 100 | 1020.4 |
| 20260831121219 | 68 | 278 | 0.0 | 0.0 | 0.00 | 0.08 | 0.01 | 100 | 1020.4 |
| 20260831115213 | 67 | 278 | 0.0 | 0.0 | 0.00 | 0.08 | 0.01 | 100 | 1020.2 |
| 20260831114211 | 67 | 278 | 0.0 | 0.0 | 0.00 | 0.08 | 0.01 | 100 | 1020.3 |
| 20260831113207 | 66 | 278 | 0.0 | 0.0 | 0.00 | 0.08 | 0.01 | 100 | 1019.9 |
| 20260831112206 | 66 | 278 | 0.0 | 0.0 | 0.00 | 0.08 | 0.01 | 100 | 1019.9 |
| 20260831105203 | 65 | 278 | 0.0 | 0.0 | 0.00 | 0.08 | 0.01 | 100 | 1019.9 |
| 20260831104205 | 65 | 278 | 0.0 | 0.0 | 0.00 | 0.08 | 0.01 | 100 | 1019.7 |
| 20260831103203 | 65 | 278 | 0.0 | 0.0 | 0.00 | 0.08 | 0.01 | 100 | 1019.8 |
| 20260831102203 | 65 | 278 | 0.0 | 0.0 | 0.00 | 0.08 | 0.01 | 100 | 1019.7 |
| 20260831101202 | 65 | 278 | 0.0 | 0.0 | 0.00 | 0.08 | 0.01 | 100 | 1019.5 |
| 20260831100203 | 65 | 278 | 0.0 | 0.0 | 0.01 | 0.08 | 0.01 | 100 | 1019.3 |
| 20260831094157 | 66 | 278 | 0.0 | 0.0 | 0.01 | 0.08 | 0.01 | 100 | 1019.2 |
| 20260831093158 | 66 | 278 | 0.0 | 0.0 | 0.01 | 0.08 | 0.01 | 100 | 1018.9 |